Theta_e
308 307 307 307 307 307 309 309 308 309 309 310 311 311 311 313 312 306 297 301 302 297 292 294 294 291 290 291 289 288 287 284 282 279 279 277 276 276 272 273 274 274 273 270 273 271 268 277 278 276 277 278 276 275
309 307 306 306 306 306 307 308 309 308 309 309 310 310 311 311 307 304 296 300 299 296 291 294 294 293 292 291 291 288 288 285 285 281 277 279 277 276 273 274 276 273 277 275 276 275 278 279 279 279 279 276 275 274
308 307 306 306 305 305 305 308 308 309 309 309 308 309 310 310 308 303 297 298 297 291 289 290 289 292 292 289 291 288 287 288 286 288 285 283 279 279 275 272 273 276 278 276 278 276 276 276 277 277 276 275 276 276
307 306 305 306 305 304 307 308 307 307 308 309 309 310 310 310 306 303 298 299 298 294 288 285 290 286 289 290 292 292 290 290 289 288 284 282 280 281 276 276 275 276 276 275 275 275 275 275 275 275 276 276 276 276
307 305 305 304 304 305 307 306 306 306 306 307 308 309 310 309 305 300 298 298 298 295 287 283 283 283 286 288 291 291 290 288 286 284 283 280 282 280 277 277 274 276 275 273 273 275 274 274 274 275 274 274 275 274
306 305 305 305 305 305 306 306 305 305 305 305 306 306 309 305 303 300 293 295 294 294 286 281 281 281 285 290 290 289 289 288 286 283 282 282 283 279 275 273 275 275 276 276 274 275 276 276 275 275 274 274 275 274
306 305 305 304 305 305 305 305 305 305 305 305 306 306 307 304 298 294 291 294 295 295 287 279 275 280 283 284 285 285 287 285 284 282 280 278 279 280 276 271 274 275 275 274 274 274 274 274 272 274 274 274 275 274
306 305 305 304 304 304 304 304 304 305 305 305 306 307 304 300 296 291 291 295 294 289 288 278 275 277 282 280 279 282 281 281 279 278 278 276 277 276 271 274 274 274 274 274 274 275 274 274 274 273 274 273 272 272
305 305 305 304 304 304 303 303 303 304 304 305 302 300 294 290 288 287 295 293 291 290 283 279 274 273 280 280 281 280 280 274 279 275 276 277 274 269 274 273 273 273 273 273 274 273 273 272 272 272 272 271 270 271
304 305 305 304 304 304 303 303 303 303 304 301 294 289 283 287 294 293 289 286 286 283 283 273 278 275 279 278 277 276 275 274 267 274 277 270 273 273 272 273 273 273 273 273 271 271 271 270 270 269 269 270 271 271
304 304 304 304 304 303 303 303 303 303 299 290 285 283 287 292 287 284 279 280 276 275 276 278 277 275 281 275 275 277 268 266 262 271 272 269 271 272 273 273 273 273 273 272 272 272 271 269 267 268 269 270 270 270
304 304 303 303 303 303 303 303 303 297 290 290 288 288 286 283 280 278 275 273 272 274 275 275 277 279 278 281 275 274 271 272 266 276 269 266 269 273 272 272 272 271 271 271 271 271 270 270 269 268 268 268 269 269
303 304 303 303 303 303 302 303 302 296 293 289 285 281 279 275 274 271 267 265 266 274 275 276 274 276 275 276 271 270 267 268 273 266 266 267 271 272 271 272 271 271 271 271 270 271 270 269 270 268 267 268 267 266
303 303 303 303 302 302 302 302 298 295 290 285 280 276 276 272 272 271 271 272 274 275 277 276 273 274 271 270 268 266 268 269 260 259 263 264 267 268 270 271 271 267 268 268 267 266 266 267 267 268 267 264 264 266
303 303 303 302 302 302 301 301 297 289 285 281 279 276 273 272 270 268 270 273 274 278 274 272 270 271 266 267 268 267 265 260 263 263 264 263 264 264 264 265 263 263 263 261 262 260 260 261 263 264 265 264 266 267
302 302 298 302 302 301 300 293 287 285 281 277 274 272 273 270 270 269 270 272 272 273 272 272 266 265 264 266 264 264 262 261 263 262 263 264 262 261 260 259 260 259 258 258 259 259 260 260 260 261 262 263 263 265
301 290 300 301 301 299 295 284 283 279 277 274 271 276 273 269 269 270 272 271 271 273 268 267 264 264 264 260 260 263 263 262 263 266 265 262 263 260 258 260 262 262 260 258 257 258 259 263 261 262 263 262 262 263
288 295 301 301 296 288 281 282 278 275 270 267 267 270 273 272 272 271 271 272 273 271 269 267 268 262 261 259 262 262 261 264 266 265 264 263 259 258 262 262 262 261 261 261 260 260 261 261 265 265 265 262 265 263
291 294 300 296 290 281 277 276 277 264 266 269 270 271 272 273 273 272 273 274 273 271 270 265 263 259 265 263 260 259 261 264 263 263 261 259 258 260 261 261 263 261 260 260 261 264 264 262 264 265 265 267 266 266
295 298 298 294 286 278 274 274 275 269 269 270 271 269 270 269 272 270 270 271 271 268 266 265 264 261 259 258 263 263 262 262 264 263 264 265 262 261 265 265 264 262 262 262 263 270 267 265 266 267 266 268 267 266
286 284 285 280 276 273 271 271 271 272 271 268 269 269 270 271 269 268 268 269 268 263 265 263 259 259 258 258 259 263 262 264 261 263 262 262 265 267 266 265 265 267 267 266 264 265 267 264 267 269 268 268 269 270
282 284 279 280 273 272 270 270 269 271 267 267 267 269 268 268 266 265 266 266 264 264 264 263 262 262 261 259 261 262 261 262 262 264 270 269 265 266 266 266 266 263 266 266 266 266 267 268 270 269 268 268 269 269
283 279 275 275 271 271 268 271 268 269 269 266 268 266 265 265 265 266 263 263 264 265 265 265 262 260 261 259 261 262 262 263 263 263 264 263 265 268 267 265 265 264 263 265 267 267 266 271 269 268 268 268 268 267
277 270 269 268 269 265 267 264 266 267 268 267 266 263 264 264 264 264 263 263 265 267 265 261 263 263 263 263 263 263 264 264 263 262 262 262 264 264 263 264 262 263 266 266 267 266 265 266 268 266 266 264 264 265
268 264 265 263 263 265 265 264 265 266 263 264 264 263 262 262 264 263 263 262 264 264 263 264 265 264 263 263 264 264 264 263 262 261 261 262 262 263 265 265 263 262 266 262 263 264 264 264 264 263 263 263 261 261
259 259 260 259 262 264 262 262 262 262 263 262 260 259 259 261 260 259 261 260 262 262 263 264 265 265 264 264 263 262 263 263 263 261 260 263 262 261 259 261 261 263 264 264 264 262 262 263 263 261 261 261 266 261
261 259 263 268 266 266 264 264 265 263 260 260 259 258 259 258 258 260 262 261 261 263 264 264 263 263 263 263 265 264 263 261 261 261 262 263 263 263 263 260 260 264 265 264 264 263 262 262 262 263 261 261 261 261
257 257 260 258 260 260 259 258 257 256 257 260 261 256 257 259 259 260 260 260 260 260 259 259 260 260 261 262 262 263 261 259 257 257 260 262 262 260 260 261 262 270 266 265 264 262 262 262 261 261 261 261 261 262
257 260 259 254 255 256 254 255 256 259 261 258 259 258 257 259 258 259 260 261 258 256 256 256 257 256 257 260 260 261 259 259 258 257 258 259 260 262 260 259 258 258 259 263 272 266 260 260 261 261 260 261 261 261
256 257 255 251 253 251 252 255 254 257 260 259 260 259 258 257 258 260 259 255 254 253 252 253 254 254 255 257 258 260 262 261 262 262 260 260 262 261 258 258 259 258 257 258 259 260 269 263 265 261 261 261 261 261
258 255 254 254 252 252 254 256 255 261 254 251 252 255 255 254 258 259 256 255 253 252 253 254 255 255 257 258 258 259 261 262 262 262 263 263 263 263 262 262 262 262 262 262 263 263 262 261 261 260 260 259 259 260
257 251 254 253 252 253 251 249 248 249 250 252 251 249 252 253 252 255 256 253 254 255 260 257 257 259 261 261 261 261 266 262 263 263 264 266 267 266 265 264 263 263 263 263 263 263 261 261 261 261 261 259 259 257
250 250 249 252 251 252 252 251 251 251 251 249 251 250 249 253 253 255 255 255 256 258 258 259 260 260 260 258 260 260 264 262 263 271 272 275 275 270 266 265 265 265 264 264 264 263 262 262 262 261 260 259 259 257
Wind_Speed
14 12 11 8 7 6 5 7 7 6 5 4 6 5 4 3 18 5 2 1 3 3 1 2 3 4 2 2 4 4 3 1 2 4 3 3 4 4 2 3 6 7 6 5 3 4 9 1 1 2 1 1 2 3
13 12 11 9 9 7 7 6 7 7 7 6 5 5 2 11 14 7 3 1 2 4 2 2 2 3 2 1 3 4 0 3 4 3 1 3 3 3 3 5 2 4 6 4 8 5 1 3 2 3 2 2 2 3
14 12 11 11 8 6 5 10 8 7 8 8 6 5 4 15 10 6 3 3 3 3 1 1 2 2 2 3 4 3 1 2 2 1 2 1 4 4 4 6 2 3 3 4 1 1 2 4 4 4 3 1 3 3
15 12 10 10 8 8 6 8 7 5 5 6 8 8 7 14 14 7 3 2 4 3 1 1 0 1 3 2 2 0 3 4 4 2 2 2 3 4 3 3 4 4 3 4 5 3 3 2 3 2 2 3 4 5
17 15 12 9 8 8 8 7 6 6 5 3 4 5 5 17 13 7 3 2 1 4 3 0 1 2 3 3 3 4 5 4 2 2 2 3 1 2 2 0 4 5 5 4 4 2 2 2 3 2 3 3 5 6
19 17 15 12 9 8 8 7 5 4 4 3 4 5 7 19 15 4 2 1 2 3 4 2 2 4 4 2 3 4 3 2 1 2 2 2 2 3 2 3 1 2 3 2 1 1 2 3 6 4 3 5 6 5
22 18 17 14 12 10 8 7 6 5 4 3 5 6 14 20 3 3 4 1 7 3 3 2 2 2 2 3 2 2 2 1 1 1 2 2 2 3 2 3 3 4 5 4 3 1 2 3 1 4 4 4 7 6
23 23 20 16 14 11 9 8 6 6 4 4 8 7 16 17 10 3 4 5 3 5 2 3 0 1 3 2 2 1 1 1 1 1 1 2 0 1 4 2 4 3 5 4 4 4 3 3 4 5 5 5 7 7
22 22 21 19 17 14 11 8 6 5 1 10 24 17 5 4 2 2 7 6 3 3 4 3 5 4 2 2 2 1 2 1 1 1 2 3 2 5 1 3 4 2 2 1 3 5 5 5 5 5 6 7 7 8
21 22 22 21 18 15 12 10 6 4 20 22 5 3 3 2 6 3 5 2 3 3 2 3 3 3 3 2 2 2 2 2 2 4 2 2 4 3 3 4 5 4 3 2 3 0 3 2 4 5 6 6 6 8
18 23 23 21 19 17 13 10 7 23 14 3 3 2 2 4 3 3 2 2 1 1 2 3 3 5 2 3 3 2 3 1 2 4 3 3 3 3 4 4 4 4 4 4 3 3 2 1 2 4 6 7 7 8
17 18 21 22 20 18 15 10 20 10 2 6 8 6 2 2 2 2 1 2 3 5 2 5 3 3 2 2 4 0 3 1 3 1 1 4 1 3 4 4 3 3 3 4 4 3 3 3 3 3 5 6 6 8
19 19 19 20 22 20 15 15 21 24 17 3 4 3 4 1 3 8 9 5 3 5 5 4 3 3 2 2 3 3 4 4 1 1 4 4 3 4 4 3 3 4 4 3 3 2 4 4 4 3 5 5 6 6
20 18 18 19 21 19 16 17 27 14 2 3 5 5 7 5 7 6 5 5 3 4 9 5 3 2 1 3 2 5 2 3 2 1 6 3 3 4 3 2 2 2 4 3 3 3 4 4 5 5 5 4 5 6
18 18 19 18 20 18 15 19 21 4 2 3 2 4 4 1 1 0 1 4 1 6 5 4 4 3 2 4 1 4 4 3 6 5 3 2 3 2 1 1 1 1 2 3 3 3 4 4 4 5 5 6 5 6
19 15 8 16 19 19 18 19 5 3 3 3 3 1 2 4 2 2 2 3 1 3 3 4 4 4 0 4 3 6 7 7 4 4 2 3 2 1 2 1 2 3 3 3 3 3 4 4 4 5 7 5 5 5
17 4 15 18 20 22 22 6 3 2 4 3 0 2 3 1 1 1 2 1 1 4 3 4 5 6 3 4 2 4 5 3 3 2 2 3 3 4 3 2 3 2 2 3 3 3 4 4 2 3 5 5 6 6
3 7 22 21 18 12 4 4 4 3 4 0 3 1 3 2 2 2 2 2 2 2 3 3 5 3 5 7 4 3 2 1 2 3 2 2 2 2 3 3 2 1 3 4 4 4 3 4 4 3 5 5 5 5
8 13 24 33 14 8 4 3 3 4 1 3 2 1 2 3 5 3 2 3 2 2 5 3 5 3 3 2 3 2 2 2 3 2 2 1 2 3 2 2 2 1 2 3 3 2 2 3 3 3 3 3 3 4
21 27 35 31 13 6 5 2 3 4 3 2 3 2 3 3 2 1 4 5 3 3 5 3 2 1 2 2 2 2 2 2 4 3 1 1 1 2 2 0 1 2 1 3 3 5 1 3 2 3 4 2 2 4
14 8 16 9 6 7 5 2 3 3 3 3 1 2 3 2 3 3 3 4 5 3 1 1 1 1 2 1 1 2 2 2 2 3 3 1 2 2 1 1 2 2 1 1 2 3 5 2 3 2 3 3 2 3
4 8 5 6 6 5 5 3 3 3 4 2 2 2 3 3 2 2 2 4 2 1 1 1 2 2 1 1 1 3 2 3 3 2 3 1 1 1 1 1 1 2 2 1 2 2 3 3 3 2 3 3 5 4
9 4 5 4 7 5 2 1 3 2 4 2 1 4 3 2 1 2 3 1 1 0 1 2 2 1 3 1 2 3 2 3 2 2 2 0 0 1 2 1 1 1 1 2 2 2 2 6 5 3 3 4 3 3
8 7 6 5 5 4 1 2 2 3 3 3 3 4 2 1 1 2 2 1 0 1 1 1 2 2 2 3 2 0 1 1 2 2 1 2 2 1 1 1 1 0 1 2 2 2 2 3 5 3 3 3 3 4
10 8 5 6 3 5 5 3 3 3 3 2 4 2 2 1 2 2 1 1 1 1 2 2 2 1 2 1 1 0 2 2 2 2 2 1 1 1 1 1 1 1 1 2 2 2 2 2 2 3 4 2 3 4
9 4 4 0 2 5 2 5 3 4 4 4 4 1 1 2 3 3 2 2 1 2 2 2 2 2 1 1 2 1 1 0 2 2 2 1 1 2 2 1 0 2 1 1 1 2 2 2 2 3 3 6 8 4
6 4 3 3 1 3 5 4 3 4 5 4 3 3 2 3 2 2 1 2 1 2 2 2 1 2 3 1 2 1 1 1 2 2 1 1 1 1 2 2 2 3 2 2 1 2 2 1 1 1 2 2 2 2
3 2 4 4 5 4 6 4 4 4 2 1 2 3 4 4 3 1 1 1 1 2 1 2 3 2 2 2 1 1 1 2 2 2 1 1 1 1 1 1 2 6 1 2 3 1 1 2 2 2 1 1 1 2
5 4 3 7 5 7 6 4 2 2 2 2 3 2 2 2 2 2 2 2 2 1 2 2 3 3 2 1 1 0 0 1 3 3 2 1 3 3 1 1 2 2 2 3 5 6 5 4 3 3 2 0 1 1
4 2 5 4 6 5 3 1 0 2 1 2 1 3 3 2 1 1 1 2 2 1 1 0 1 1 1 1 1 2 1 1 1 2 2 2 3 2 1 1 2 2 2 2 2 3 4 4 3 3 2 2 2 2
2 3 6 5 4 2 2 2 3 1 3 3 3 4 2 2 1 2 2 1 1 1 2 2 2 2 2 2 2 2 2 2 3 3 3 2 2 2 3 3 2 1 1 1 2 2 2 1 1 1 2 2 4 4
4 5 4 5 0 3 3 3 1 3 4 4 4 2 3 3 2 3 2 2 2 3 3 2 2 1 2 1 1 2 3 2 3 3 5 5 5 5 3 3 3 2 2 2 2 2 2 2 1 1 1 2 3 3
3 3 4 4 3 3 3 4 5 3 4 3 3 1 1 1 2 3 2 0 1 0 1 1 1 2 2 2 2 3 5 3 8 10 12 13 7 5 5 4 4 4 4 3 3 3 3 3 2 3 3 4 4 4
Wind_Direction
197 203 204 205 190 178 174 175 151 145 147 120 100 70 42 189 171 122 98 29 162 151 151 176 148 130 101 197 165 148 105 171 115 192 186 219 194 234 234 217 184 183 179 212 198 243 265 43 93 238 31 95 21 346
198 193 191 194 197 197 199 189 183 188 163 144 130 115 49 133 126 110 102 42 45 76 101 34 62 82 107 79 152 188 292 144 173 123 250 146 217 177 193 265 182 251 198 190 193 236 146 36 137 93 44 73 347 309
194 196 194 191 199 202 225 196 181 180 192 178 171 148 109 145 127 95 115 146 84 105 43 101 127 48 46 16 308 152 245 162 147 50 153 135 225 137 193 234 241 254 178 229 344 167 124 110 79 80 80 45 315 307
186 188 194 186 197 203 212 162 154 148 154 185 179 184 173 153 139 119 121 151 82 97 144 131 79 40 318 318 238 326 115 73 86 72 139 176 211 153 211 248 214 210 144 213 250 116 104 92 90 74 24 2 332 315
184 181 181 185 190 190 167 159 159 148 130 147 167 203 220 153 130 85 75 143 149 133 171 211 9 4 337 314 97 105 119 108 129 155 185 209 209 176 218 236 228 189 206 187 244 45 111 122 116 33 20 0 338 321
187 183 181 183 187 191 173 177 197 203 184 170 206 214 158 142 132 109 36 204 209 116 116 199 342 12 2 57 90 100 93 83 120 169 194 223 235 154 211 231 214 106 64 23 170 35 90 128 131 43 18 348 321 325
184 185 183 181 183 183 178 189 197 222 237 253 241 232 169 160 96 126 182 172 156 103 104 103 343 356 32 73 34 40 40 75 115 174 237 224 230 177 241 233 129 125 125 91 40 152 146 66 13 11 349 322 321 301
187 184 183 183 182 177 183 198 199 204 240 274 296 159 127 105 103 56 16 92 86 84 65 132 114 301 182 135 124 171 130 38 329 207 359 215 39 88 257 197 141 124 119 87 36 41 71 69 25 360 333 329 335 324
195 184 182 180 184 182 185 200 207 190 161 124 119 109 71 40 62 95 122 74 44 109 166 146 156 199 145 124 118 113 137 134 313 202 232 151 207 223 198 176 142 63 115 41 14 100 50 37 342 346 331 330 331 324
199 189 183 185 182 182 185 196 196 177 136 131 69 52 80 27 93 73 14 40 30 6 23 150 106 158 147 163 147 106 1 214 201 233 94 167 249 90 68 79 109 107 86 50 72 14 7 332 346 340 321 314 315 315
199 196 185 181 177 176 184 192 190 140 126 53 86 83 80 52 56 40 155 160 124 322 175 159 143 136 232 130 156 186 183 233 79 265 164 244 251 144 142 115 107 91 79 66 79 68 65 254 303 318 315 315 318 320
190 193 193 185 174 177 182 173 153 139 139 129 110 101 109 63 62 139 124 38 204 216 147 135 162 127 158 124 107 305 144 92 246 96 65 266 226 130 142 131 100 80 76 73 48 12 357 345 351 307 303 300 311 313
190 190 194 188 178 178 176 155 151 124 114 87 80 100 136 163 176 180 190 250 224 175 171 153 130 128 83 64 75 107 112 208 44 79 230 229 147 128 132 122 115 62 47 40 352 330 356 340 337 318 296 309 312 311
184 183 184 184 180 176 172 168 148 140 131 139 150 184 192 190 242 184 181 160 200 129 137 118 94 120 154 76 141 117 215 83 69 252 237 223 178 151 126 79 83 14 6 342 295 344 338 330 320 318 309 297 313 315
178 180 184 184 181 174 173 157 144 58 80 155 198 222 214 81 49 85 120 90 34 134 112 93 68 88 34 96 51 98 56 255 210 225 222 209 165 133 84 35 70 310 294 289 299 334 305 307 314 308 315 317 316 309
176 173 179 177 173 171 136 110 66 57 96 115 104 141 348 46 345 14 49 93 289 125 82 56 109 72 282 136 117 204 144 212 231 217 194 123 130 218 225 243 258 249 248 272 302 272 287 301 299 302 307 311 320 311
158 170 170 164 172 135 123 82 79 45 98 98 109 92 115 141 160 251 102 188 206 96 132 117 108 187 104 56 285 210 200 204 175 123 97 137 169 216 205 231 254 256 301 291 278 290 272 277 308 336 333 308 313 302
139 156 161 164 118 82 55 45 82 74 98 19 120 113 95 60 93 24 52 26 58 84 94 183 124 122 169 167 237 218 175 124 88 115 145 179 189 199 189 226 272 274 281 284 270 272 285 345 332 311 300 290 304 314
178 172 160 135 118 99 83 50 63 108 111 109 82 41 75 96 67 47 54 59 55 74 98 42 84 159 204 201 177 218 136 139 150 187 174 257 184 191 230 259 268 306 296 281 315 306 293 278 257 295 295 307 305 309
62 166 146 139 88 87 88 58 59 88 103 130 52 38 57 38 45 27 55 28 43 46 41 43 140 210 187 244 233 135 135 131 120 91 68 314 237 197 242 202 294 284 314 354 329 10 22 343 328 307 302 338 334 325
70 57 69 74 66 67 86 76 65 79 94 84 216 99 93 71 29 27 40 352 58 40 47 296 156 271 307 303 314 79 81 106 144 144 163 192 267 151 110 32 23 29 55 28 359 335 0 302 289 322 310 307 322 329
67 63 74 56 83 74 71 10 91 84 72 111 68 37 70 78 54 29 309 57 69 94 219 174 137 154 73 46 7 48 129 105 89 69 100 117 68 95 65 36 51 22 40 25 333 312 319 310 304 6 337 349 357 340
112 91 56 74 82 72 92 324 99 13 110 103 75 75 48 68 41 305 76 30 113 30 47 90 104 99 110 256 76 57 62 90 93 94 70 69 232 138 124 94 65 85 355 298 300 316 310 345 342 20 348 5 359 15
40 53 55 69 83 115 166 60 59 82 85 69 85 109 104 111 348 49 96 88 77 129 76 83 103 79 32 33 51 15 27 98 111 72 34 73 80 352 141 146 124 248 274 290 335 331 337 351 17 6 3 14 10 24
71 356 49 54 41 112 95 94 80 87 98 107 115 123 144 258 109 71 112 168 188 134 131 125 115 112 134 159 146 140 343 115 124 152 287 167 220 9 69 115 109 261 3 49 356 337 324 349 3 21 8 50 41 25
72 307 76 146 4 99 157 111 132 125 120 87 65 84 22 91 87 205 210 185 152 136 130 139 144 131 82 187 155 178 259 35 119 112 269 197 151 136 166 162 251 281 326 185 270 311 327 356 39 55 50 19 29 38
68 353 349 25 106 114 91 62 67 90 82 107 159 134 100 92 211 240 87 25 42 36 34 23 183 179 169 134 85 73 71 96 146 188 169 149 144 165 149 171 216 243 283 279 266 234 234 233 111 89 94 55 26 2
141 40 75 328 54 9 101 67 57 71 117 275 100 70 127 165 179 70 33 17 8 359 29 25 32 38 75 79 62 78 18 3 10 9 5 4 38 31 350 305 287 291 324 266 213 167 149 152 144 140 131 113 10 4
39 349 55 35 44 46 41 56 87 39 12 41 100 116 134 52 22 1 7 3 353 75 62 36 351 2 26 39 51 7 125 92 84 64 64 304 336 301 320 331 324 323 323 332 175 150 155 146 141 144 152 172 298 323
348 351 85 53 60 37 289 351 248 283 33 99 94 89 72 45 343 309 337 11 47 84 193 233 315 50 116 106 9 10 355 182 170 139 160 233 250 271 291 291 297 313 345 53 55 8 71 44 59 37 38 22 9 7
344 55 73 55 83 261 258 310 314 23 32 43 350 90 114 189 338 28 33 15 69 63 83 45 29 5 79 57 75 78 9 345 3 317 269 252 250 233 229 223 217 207 179 131 105 99 77 66 68 56 35 12 351 13
28 48 106 93 6 288 19 58 20 61 353 45 0 30 20 52 32 304 326 50 49 38 53 100 108 35 12 2 327 288 339 306 311 310 298 271 244 217 204 189 185 186 185 187 184 169 159 177 200 235 272 297 317 325
55 51 52 91 50 19 332 72 24 24 29 37 3 358 169 142 176 259 301 145 158 316 358 352 325 314 314 301 295 303 329 311 304 322 324 325 12 220 190 183 188 197 204 208 205 197 211 225 248 247 264 283 296 300